Weather in Shaim

Russia / Khanty-Mansi Autonomous Okrug — Yugra     60°20′17″N   64°08′41″E
temp.,
°C
wind,
m/s
gust,
m/s
humid.,
%
clouds,
%
prec.,
mm/h
press.,
hPa
HPBL,
m
15 may, sat
sat1523:00+17w31076100 0.4 1017260
02:00+16wsw4117546 0.4 1017316
05:00+15wsw4107875 0.4 1016237
08:00+21wsw4853100 0.0 1015282
11:00+22s2557100 3.4 1015621
14:00+25s364096 0.5 1013607
17:00+22ne4859100 1.4 1011382
20:00+16n018855 3.4 101357
16 may, sun
sun1623:00+15ssw249366 3.9 101489
02:00+14w3891100 0.0 1014145
05:00+15wsw3886100 0.0 1014168
08:00+16ssw118197 0.4 1014109
11:00+18wsw1274100 0.6 1015254
14:00+19ene1168100 0.4 1015306
17:00+22wsw125749 0.8 1014971
20:00+18ne4883100 3.7 1014285
17 may, mon
mon1723:00+16sse51287100 5.6 1012233
02:00+14ese379699 0.1 1012145
05:00+15sw3892100 0.1 1011173
08:00+20w496893 0.0 1011357
11:00+24wsw5948100 0.0 10111190
14:00+27w6123263 0.0 10093600
17:00+25wnw6113658 0.0 10091221
20:00+21wnw364672 0.0 1010120
18 may, tue
tue1823:00+17ne23745 0.0 101163
02:00+14ssw22891 0.1 101228
05:00+14nw4109199 0.2 1012347
08:00+17nnw587398 0.0 1013718
11:00+15nw357796 0.6 1014584
14:00+14n578072 0.1 1016715
17:00+12n4683100 0.1 1018826
20:00+11nne478299 0.1 1020649
19 may, wed
wed1923:00+9nne368298 0.1 1022329
02:00+9n378675 0.0 1023282
05:00+7nnw269010 0.0 1024158
08:00+12nne246117 0.0 1026596
11:00+15nne3347100 0.0 10261335
14:00+17nne224085 0.0 10251515
17:00+18ene113843 0.0 10241585
20:00+16se235132 0.0 102460